Time,TemperatureF,DewpointF,PressureIn,WindDirection,WindDirectionDegrees,WindSpeedMPH,WindSpeedGustMPH,Humidity,HourlyPrecipIn,Conditions,Clouds,dailyrainin,SoftwareType,DateUTC
2013-05-04 00:02:00,67.0,39.0,-100.00,SW,225,6.0,11.0,35,0.00,,,-99.99,,2013-05-04 04:02:00,
2013-05-04 00:12:00,67.0,39.0,-100.00,SW,225,6.0,12.0,35,0.00,,,-99.99,,2013-05-04 04:12:00,
2013-05-04 00:22:00,67.0,39.0,-100.00,SW,225,8.0,12.0,35,0.00,,,-99.99,,2013-05-04 04:22:00,
2013-05-04 00:33:00,67.0,39.0,-100.00,SW,235,6.0,14.0,35,0.00,,,-99.99,,2013-05-04 04:33:00,
2013-05-04 00:42:00,67.0,39.0,-100.00,SW,215,5.0,9.0,36,0.00,,,-99.99,,2013-05-04 04:42:00,
2013-05-04 00:52:00,66.0,39.0,-100.00,SW,225,4.0,11.0,36,0.00,,,-99.99,,2013-05-04 04:52:00,
2013-05-04 01:02:00,66.0,39.0,-100.00,SSW,205,6.0,12.0,36,0.00,,,-99.99,,2013-05-04 05:02:00,
2013-05-04 01:12:00,66.0,39.0,-100.00,SW,220,7.0,12.0,36,0.00,,,-99.99,,2013-05-04 05:12:00,
2013-05-04 01:22:00,66.0,39.0,-100.00,SW,215,5.0,10.0,37,0.00,,,-99.99,,2013-05-04 05:22:00,
2013-05-04 01:32:00,66.0,39.0,-100.00,SW,235,6.0,9.0,38,0.00,,,-99.99,,2013-05-04 05:32:00,
2013-05-04 01:42:00,65.0,39.0,-100.00,SW,220,8.0,12.0,38,0.00,,,-99.99,,2013-05-04 05:42:00,
2013-05-04 01:52:00,65.0,40.0,-100.00,SW,220,6.0,9.0,39,0.00,,,-99.99,,2013-05-04 05:52:00,
2013-05-04 02:01:00,65.0,40.0,-100.00,SSW,205,7.0,13.0,39,0.00,,,-99.99,,2013-05-04 06:01:00,
2013-05-04 02:11:00,65.0,40.0,-100.00,SW,230,5.0,9.0,40,0.00,,,-99.99,,2013-05-04 06:11:00,
2013-05-04 02:21:00,65.0,40.0,-100.00,SW,225,6.0,12.0,41,0.00,,,-99.99,,2013-05-04 06:21:00,
2013-05-04 02:32:00,65.0,41.0,-100.00,SW,215,5.0,11.0,42,0.00,,,-99.99,,2013-05-04 06:32:00,
2013-05-04 02:42:00,64.0,41.0,-100.00,WSW,240,6.0,12.0,43,0.00,,,-99.99,,2013-05-04 06:42:00,
2013-05-04 02:52:00,64.0,41.0,-100.00,SW,230,7.0,11.0,43,0.00,,,-99.99,,2013-05-04 06:52:00,
2013-05-04 03:01:00,64.0,42.0,-100.00,SSW,210,6.0,14.0,44,0.00,,,-99.99,,2013-05-04 07:01:00,
2013-05-04 03:11:00,63.0,42.0,-100.00,SW,215,4.0,9.0,44,0.00,,,-99.99,,2013-05-04 07:11:00,
2013-05-04 03:21:00,63.0,42.0,-100.00,SSW,210,6.0,12.0,45,0.00,,,-99.99,,2013-05-04 07:21:00,
2013-05-04 03:32:00,63.0,42.0,-100.00,SW,215,6.0,10.0,46,0.00,,,-99.99,,2013-05-04 07:32:00,
2013-05-04 03:42:00,63.0,42.0,-100.00,SSW,210,6.0,9.0,47,0.00,,,-99.99,,2013-05-04 07:42:00,
2013-05-04 03:52:00,62.0,43.0,-100.00,SW,215,4.0,11.0,48,0.00,,,-99.99,,2013-05-04 07:52:00,
2013-05-04 04:02:00,62.0,43.0,-100.00,SW,215,5.0,9.0,49,0.00,,,-99.99,,2013-05-04 08:02:00,
2013-05-04 04:11:00,62.0,43.0,-100.00,SW,230,6.0,9.0,50,0.00,,,-99.99,,2013-05-04 08:11:00,
2013-05-04 04:21:00,62.0,44.0,-100.00,WSW,240,3.0,8.0,51,0.00,,,-99.99,,2013-05-04 08:21:00,
2013-05-04 04:32:00,62.0,44.0,-100.00,WSW,240,3.0,8.0,51,0.00,,,-99.99,,2013-05-04 08:32:00,
2013-05-04 04:42:00,61.0,44.0,-100.00,SW,235,2.0,6.0,54,0.00,,,-99.99,,2013-05-04 08:42:00,
2013-05-04 04:52:00,61.0,45.0,-100.00,SSW,205,4.0,6.0,54,0.00,,,-99.99,,2013-05-04 08:52:00,
2013-05-04 05:02:00,61.0,45.0,-100.00,SW,230,2.0,6.0,54,0.00,,,-99.99,,2013-05-04 09:02:00,
2013-05-04 05:11:00,61.0,45.0,-100.00,SW,225,3.0,8.0,54,0.00,,,-99.99,,2013-05-04 09:11:00,
2013-05-04 05:22:00,61.0,45.0,-100.00,SW,215,3.0,8.0,55,0.00,,,-99.99,,2013-05-04 09:22:00,
2013-05-04 05:32:00,61.0,45.0,-100.00,SW,215,4.0,6.0,55,0.00,,,-99.99,,2013-05-04 09:32:00,
2013-05-04 05:42:00,61.0,45.0,-100.00,SW,215,2.0,10.0,54,0.00,,,-99.99,,2013-05-04 09:42:00,
2013-05-04 05:52:00,61.0,45.0,-100.00,SW,225,4.0,7.0,54,0.00,,,-99.99,,2013-05-04 09:52:00,
2013-05-04 06:03:00,61.0,45.0,-100.00,SW,225,3.0,9.0,55,0.00,,,-99.99,,2013-05-04 10:03:00,
2013-05-04 06:12:00,61.0,44.0,-100.00,SW,235,4.0,7.0,54,0.00,,,-99.99,,2013-05-04 10:12:00,
2013-05-04 06:23:00,61.0,44.0,-100.00,SW,225,4.0,8.0,54,0.00,,,-99.99,,2013-05-04 10:23:00,
2013-05-04 06:33:00,61.0,44.0,-100.00,SSW,205,6.0,9.0,55,0.00,,,-99.99,,2013-05-04 10:33:00,
2013-05-04 06:42:00,61.0,44.0,-100.00,SW,215,4.0,9.0,55,0.00,,,-99.99,,2013-05-04 10:42:00,
2013-05-04 06:52:00,61.0,45.0,-100.00,SSW,200,5.0,11.0,55,0.00,,,-99.99,,2013-05-04 10:52:00,
2013-05-04 07:02:00,61.0,44.0,-100.00,SW,215,4.0,9.0,55,0.00,,,-99.99,,2013-05-04 11:02:00,
2013-05-04 07:11:00,61.0,44.0,-100.00,SSW,210,4.0,11.0,55,0.00,,,-99.99,,2013-05-04 11:11:00,
2013-05-04 07:21:00,61.0,44.0,-100.00,SW,220,4.0,7.0,55,0.00,,,-99.99,,2013-05-04 11:21:00,
2013-05-04 07:32:00,61.0,44.0,-100.00,SW,215,6.0,9.0,55,0.00,,,-99.99,,2013-05-04 11:32:00,
2013-05-04 07:44:00,61.0,44.0,-100.00,WSW,250,5.0,13.0,55,0.00,,,-99.99,,2013-05-04 11:44:00,
2013-05-04 07:56:00,61.0,45.0,-100.00,SSW,200,4.0,11.0,55,0.00,,,-99.99,,2013-05-04 11:56:00,
2013-05-04 08:08:00,61.0,45.0,-100.00,SW,225,6.0,12.0,54,0.00,,,-99.99,,2013-05-04 12:08:00,
2013-05-04 08:14:00,61.0,45.0,-100.00,SSW,210,5.0,12.0,55,0.00,,,-99.99,,2013-05-04 12:14:00,
2013-05-04 08:29:00,62.0,45.0,-100.00,SW,230,6.0,9.0,55,0.00,,,-99.99,,2013-05-04 12:29:00,
2013-05-04 08:37:00,62.0,45.0,-100.00,SW,225,6.0,9.0,53,0.00,,,-99.99,,2013-05-04 12:37:00,
2013-05-04 08:51:00,61.0,44.0,-100.00,SSW,210,6.0,12.0,52,0.00,,,-99.99,,2013-05-04 12:51:00,
2013-05-04 09:01:00,61.0,43.0,-100.00,SW,225,6.0,13.0,51,0.00,,,-99.99,,2013-05-04 13:01:00,
2013-05-04 09:11:00,61.0,43.0,-100.00,SSW,205,8.0,12.0,51,0.00,,,-99.99,,2013-05-04 13:11:00,
2013-05-04 09:21:00,61.0,44.0,-100.00,SW,230,7.0,16.0,52,0.00,,,-99.99,,2013-05-04 13:21:00,
2013-05-04 09:32:00,61.0,43.0,-100.00,SW,220,5.0,12.0,51,0.00,,,-99.99,,2013-05-04 13:32:00,
2013-05-04 09:42:00,62.0,43.0,-100.00,SW,230,7.0,14.0,49,0.00,,,-99.99,,2013-05-04 13:42:00,
2013-05-04 09:52:00,62.0,43.0,-100.00,WSW,240,4.0,12.0,50,0.00,,,-99.99,,2013-05-04 13:52:00,
2013-05-04 10:02:00,62.0,42.0,-100.00,SW,215,6.0,12.0,48,0.00,,,-99.99,,2013-05-04 14:02:00,
2013-05-04 10:11:00,62.0,42.0,-100.00,SSW,200,6.0,14.0,48,0.00,,,-99.99,,2013-05-04 14:11:00,
2013-05-04 10:21:00,62.0,42.0,-100.00,South,180,7.0,15.0,47,0.00,,,-99.99,,2013-05-04 14:21:00,
2013-05-04 10:32:00,63.0,41.0,-100.00,SSW,210,5.0,14.0,45,0.00,,,-99.99,,2013-05-04 14:32:00,
2013-05-04 10:42:00,63.0,40.0,-100.00,SW,215,6.0,12.0,44,0.00,,,-99.99,,2013-05-04 14:42:00,
2013-05-04 10:51:00,63.0,41.0,-100.00,South,190,7.0,13.0,44,0.00,,,-99.99,,2013-05-04 14:51:00,
2013-05-04 11:02:00,63.0,41.0,-100.00,SSW,195,7.0,12.0,44,0.00,,,-99.99,,2013-05-04 15:02:00,
2013-05-04 11:12:00,63.0,40.0,-100.00,SW,220,7.0,12.0,43,0.00,,,-99.99,,2013-05-04 15:12:00,
2013-05-04 11:22:00,63.0,40.0,-100.00,South,190,7.0,12.0,43,0.00,,,-99.99,,2013-05-04 15:22:00,
2013-05-04 11:33:00,64.0,41.0,-100.00,South,190,9.0,17.0,42,0.00,,,-99.99,,2013-05-04 15:33:00,
2013-05-04 11:43:00,65.0,40.0,-100.00,SSW,195,6.0,11.0,39,0.00,,,-99.99,,2013-05-04 15:43:00,
2013-05-04 11:52:00,64.0,39.0,-100.00,South,185,6.0,16.0,40,0.00,,,-99.99,,2013-05-04 15:52:00,
2013-05-04 12:03:00,66.0,40.0,-100.00,WSW,245,9.0,16.0,38,0.00,,,-99.99,,2013-05-04 16:03:00,
2013-05-04 12:12:00,65.0,39.0,-100.00,SSW,195,7.0,16.0,39,0.00,,,-99.99,,2013-05-04 16:12:00,
2013-05-04 12:22:00,65.0,40.0,-100.00,SSW,210,4.0,12.0,39,0.00,,,-99.99,,2013-05-04 16:22:00,
2013-05-04 12:33:00,65.0,39.0,-100.00,SSW,210,9.0,14.0,38,0.00,,,-99.99,,2013-05-04 16:33:00,
2013-05-04 12:42:00,66.0,40.0,-100.00,West,260,6.0,11.0,39,0.00,,,-99.99,,2013-05-04 16:42:00,
2013-05-04 12:52:00,67.0,40.0,-100.00,SW,215,9.0,12.0,37,0.00,,,-99.99,,2013-05-04 16:52:00,
2013-05-04 13:02:00,66.0,41.0,-100.00,SSW,205,6.0,15.0,40,0.00,,,-99.99,,2013-05-04 17:02:00,
2013-05-04 13:12:00,67.0,42.0,-100.00,SW,225,6.0,14.0,40,0.00,,,-99.99,,2013-05-04 17:12:00,
2013-05-04 13:22:00,67.0,41.0,-100.00,SSW,210,4.0,11.0,39,0.00,,,-99.99,,2013-05-04 17:22:00,
2013-05-04 13:32:00,67.0,42.0,-100.00,SSE,165,7.0,14.0,39,0.00,,,-99.99,,2013-05-04 17:32:00,
2013-05-04 13:42:00,68.0,41.0,-100.00,SW,215,5.0,12.0,36,0.00,,,-99.99,,2013-05-04 17:42:00,
2013-05-04 13:52:00,68.0,41.0,-100.00,WSW,240,9.0,15.0,37,0.00,,,-99.99,,2013-05-04 17:52:00,
2013-05-04 14:01:00,69.0,41.0,-100.00,SSW,210,2.0,15.0,36,0.00,,,-99.99,,2013-05-04 18:01:00,
2013-05-04 14:12:00,70.0,44.0,-100.00,WSW,250,6.0,11.0,39,0.00,,,-99.99,,2013-05-04 18:12:00,
2013-05-04 14:22:00,70.0,43.0,-100.00,SW,235,6.0,12.0,37,0.00,,,-99.99,,2013-05-04 18:22:00,
2013-05-04 14:32:00,72.0,42.0,-100.00,SW,230,4.0,13.0,34,0.00,,,-99.99,,2013-05-04 18:32:00,
2013-05-04 14:42:00,72.0,46.0,-100.00,SW,220,6.0,12.0,38,0.00,,,-99.99,,2013-05-04 18:42:00,
2013-05-04 14:52:00,71.0,45.0,-100.00,SSW,210,9.0,14.0,38,0.00,,,-99.99,,2013-05-04 18:52:00,
2013-05-04 15:01:00,71.0,44.0,-100.00,South,190,10.0,14.0,36,0.00,,,-99.99,,2013-05-04 19:01:00,
2013-05-04 15:11:00,72.0,45.0,-100.00,South,175,6.0,14.0,37,0.00,,,-99.99,,2013-05-04 19:11:00,
2013-05-04 15:21:00,73.0,45.0,-100.00,WSW,240,10.0,16.0,36,0.00,,,-99.99,,2013-05-04 19:21:00,
2013-05-04 15:32:00,73.0,44.0,-100.00,South,175,6.0,16.0,36,0.00,,,-99.99,,2013-05-04 19:32:00,
2013-05-04 15:42:00,74.0,46.0,-100.00,SSE,155,4.0,15.0,37,0.00,,,-99.99,,2013-05-04 19:42:00,
2013-05-04 15:52:00,73.0,45.0,-100.00,West,260,5.0,12.0,36,0.00,,,-99.99,,2013-05-04 19:52:00,
2013-05-04 16:02:00,73.0,45.0,-100.00,SSW,205,8.0,12.0,37,0.00,,,-99.99,,2013-05-04 20:02:00,
2013-05-04 16:11:00,73.0,45.0,-100.00,South,175,7.0,12.0,37,0.00,,,-99.99,,2013-05-04 20:11:00,
2013-05-04 16:22:00,73.0,46.0,-100.00,West,260,6.0,14.0,37,0.00,,,-99.99,,2013-05-04 20:22:00,
2013-05-04 16:32:00,74.0,45.0,-100.00,SW,220,6.0,16.0,36,0.00,,,-99.99,,2013-05-04 20:32:00,
2013-05-04 16:42:00,73.0,46.0,-100.00,South,170,4.0,15.0,38,0.00,,,-99.99,,2013-05-04 20:42:00,
2013-05-04 16:52:00,73.0,46.0,-100.00,South,175,6.0,11.0,39,0.00,,,-99.99,,2013-05-04 20:52:00,
2013-05-04 17:02:00,72.0,46.0,-100.00,SSW,195,6.0,16.0,39,0.00,,,-99.99,,2013-05-04 21:02:00,
2013-05-04 17:12:00,72.0,46.0,-100.00,SSW,200,6.0,12.0,38,0.00,,,-99.99,,2013-05-04 21:12:00,
2013-05-04 17:22:00,72.0,46.0,-100.00,SSW,195,8.0,12.0,39,0.00,,,-99.99,,2013-05-04 21:22:00,
2013-05-04 17:33:00,72.0,45.0,-100.00,SW,235,5.0,11.0,37,0.00,,,-99.99,,2013-05-04 21:33:00,
2013-05-04 17:43:00,73.0,46.0,-100.00,SW,225,5.0,9.0,37,0.00,,,-99.99,,2013-05-04 21:43:00,
2013-05-04 17:53:00,72.0,46.0,-100.00,SSW,205,6.0,9.0,39,0.00,,,-99.99,,2013-05-04 21:53:00,
2013-05-04 18:03:00,73.0,46.0,-100.00,SW,220,2.0,6.0,38,0.00,,,-99.99,,2013-05-04 22:03:00,
2013-05-04 18:12:00,73.0,44.0,-100.00,SSE,160,1.0,7.0,35,0.00,,,-99.99,,2013-05-04 22:12:00,
2013-05-04 18:22:00,73.0,45.0,-100.00,SSW,200,5.0,9.0,36,0.00,,,-99.99,,2013-05-04 22:22:00,
2013-05-04 18:33:00,73.0,45.0,-100.00,SW,230,4.0,6.0,37,0.00,,,-99.99,,2013-05-04 22:33:00,
2013-05-04 18:42:00,73.0,45.0,-100.00,SW,230,2.0,6.0,36,0.00,,,-99.99,,2013-05-04 22:42:00,
2013-05-04 18:52:00,73.0,44.0,-100.00,SW,225,3.0,6.0,35,0.00,,,-99.99,,2013-05-04 22:52:00,
2013-05-04 19:02:00,72.0,46.0,-100.00,SW,215,6.0,12.0,39,0.00,,,-99.99,,2013-05-04 23:02:00,
2013-05-04 19:12:00,72.0,46.0,-100.00,SW,215,5.0,9.0,39,0.00,,,-99.99,,2013-05-04 23:12:00,
2013-05-04 19:22:00,72.0,47.0,-100.00,SW,220,3.0,10.0,40,0.00,,,-99.99,,2013-05-04 23:22:00,
2013-05-04 19:32:00,71.0,47.0,-100.00,SW,225,3.0,7.0,41,0.00,,,-99.99,,2013-05-04 23:32:00,
2013-05-04 19:42:00,72.0,47.0,-100.00,SSE,160,3.0,8.0,41,0.00,,,-99.99,,2013-05-04 23:42:00,
2013-05-04 19:52:00,72.0,47.0,-100.00,SW,215,5.0,10.0,41,0.00,,,-99.99,,2013-05-04 23:52:00,
2013-05-04 20:02:00,71.0,50.0,-100.00,West,260,6.0,11.0,47,1.10,,,-99.99,,2013-05-05 00:02:00,
2013-05-04 20:11:00,68.0,51.0,-100.00,WNW,285,6.0,12.0,55,0.00,,,-99.99,,2013-05-05 00:11:00,
2013-05-04 20:21:00,67.0,51.0,-100.00,NW,325,1.0,8.0,57,0.00,,,-99.99,,2013-05-05 00:21:00,
2013-05-04 20:32:00,65.0,54.0,-100.00,ESE,120,2.0,5.0,68,0.00,,,-99.99,,2013-05-05 00:32:00,
2013-05-04 20:42:00,63.0,54.0,-100.00,SSE,165,1.0,6.0,71,0.00,,,-99.99,,2013-05-05 00:42:00,
2013-05-04 20:51:00,64.0,55.0,-100.00,WNW,295,1.0,5.0,70,0.00,,,-99.99,,2013-05-05 00:51:00,
2013-05-04 21:01:00,64.0,55.0,-100.00,North,0,1.0,3.0,70,0.00,,,-99.99,,2013-05-05 01:01:00,
2013-05-04 21:11:00,64.0,55.0,-100.00,WNW,290,1.0,5.0,72,0.00,,,-99.99,,2013-05-05 01:11:00,
2013-05-04 21:21:00,64.0,55.0,-100.00,NNW,340,0.0,3.0,72,0.00,,,-99.99,,2013-05-05 01:21:00,
2013-05-04 21:32:00,64.0,55.0,-100.00,WNW,300,1.0,2.0,72,0.00,,,-99.99,,2013-05-05 01:32:00,
2013-05-04 21:42:00,64.0,55.0,-100.00,SE,145,1.0,4.0,71,0.00,,,-99.99,,2013-05-05 01:42:00,
2013-05-04 21:52:00,64.0,54.0,-100.00,NW,315,1.0,3.0,68,0.00,,,-99.99,,2013-05-05 01:52:00,
2013-05-04 22:02:00,65.0,53.0,-100.00,NW,315,1.0,3.0,65,0.00,,,-99.99,,2013-05-05 02:02:00,
2013-05-04 22:11:00,64.0,52.0,-100.00,NW,305,7.0,14.0,64,0.00,,,-99.99,,2013-05-05 02:11:00,
2013-05-04 22:22:00,62.0,51.0,-100.00,NNW,340,8.0,12.0,67,0.00,,,-99.99,,2013-05-05 02:22:00,
2013-05-04 22:32:00,62.0,51.0,-100.00,NNW,335,2.0,8.0,68,0.00,,,-99.99,,2013-05-05 02:32:00,
2013-05-04 22:42:00,61.0,51.0,-100.00,NW,315,2.0,9.0,69,0.00,,,-99.99,,2013-05-05 02:42:00,
2013-05-04 22:52:00,61.0,51.0,-100.00,NNW,340,6.0,12.0,69,0.00,,,-99.99,,2013-05-05 02:52:00,
2013-05-04 23:01:00,60.0,51.0,-100.00,NNW,340,7.0,11.0,69,0.00,,,-99.99,,2013-05-05 03:01:00,
2013-05-04 23:11:00,60.0,51.0,-100.00,North,0,3.0,9.0,70,0.00,,,-99.99,,2013-05-05 03:11:00,
2013-05-04 23:22:00,60.0,50.0,-100.00,North,0,1.0,9.0,69,0.00,,,-99.99,,2013-05-05 03:22:00,
2013-05-04 23:33:00,60.0,50.0,-100.00,East,80,1.0,5.0,70,0.00,,,-99.99,,2013-05-05 03:33:00,
2013-05-04 23:42:00,60.0,51.0,-100.00,NE,45,1.0,6.0,71,0.00,,,-99.99,,2013-05-05 03:42:00,
2013-05-04 23:53:00,60.0,51.0,-100.00,NE,50,3.0,6.0,73,0.00,,,-99.99,,2013-05-05 03:53:00,